Home   Weather   Shreveport   Past weeks

Flag for USA Past Weather in Shreveport, Louisiana, USA — Yesterday and Last 2 Weeks

Now
58 °F

Light rain. Low clouds.


Feels Like: 56 °F
Forecast: 53 / 60 °F
Wind: 8 mph from Southeast

Location: Shreveport Regional Airport

Current Time: Jan 18, 2017 at 12:33:44 pm

Latest Report: Jan 18, 2017 at 11:56 am


Visibility: 10 mi

Pressure: 30.06 "Hg

Humidity: 93%

Dew Point: 56 °F

Location of ShreveportLocation

Past Weather in Shreveport — Graph

°F

Shreveport Temperature Yesterday

Maximum temperature yesterday: 58 °F (at 12:40 am)
Minimum temperature yesterday: 53 °F (at 9:56 am)
Average temperature yesterday: 55 °F

High & Low Weather Summary for the Past Weeks

 TemperatureHumidityPressure
High81 °F (Jan 12, 2:56 pm)100% (Jan 13, 1:44 am)30.77 "Hg (Jan 13, 1:44 am)
Low18 °F (Jan 8, 5:56 am)23% (Jan 8, 2:56 pm)29.87 "Hg (Jan 3, 1:56 pm)
Average55 °F79%30.19 "Hg
* Reported Jan 3 10:56 am — Jan 18 10:56 am, Shreveport, Weather by CustomWeather, © 2017

Note: Actual official high and low records may vary slightly from our data, if they occured in-between our weather recording intervals... More about our weather records

Advertising

Shreveport Weather History for the Previous 24 Hours

Scroll right to see more
 ConditionsComfort  
Time TempWeatherWind HumidityBarometerVisibility
10:56 am
Wed, Jan 18
57 °FMostly cloudy.7 mph96%30.09 "Hg10 mi
10:24 am56 °FOvercast.8 mph97%30.12 "Hg10 mi
9:56 am56 °FLight rain. Low clouds.6 mph97%30.12 "Hg10 mi
9:39 am55 °FLow clouds.5 mph96%30.13 "Hg10 mi
9:12 am55 °FMostly cloudy.7 mph96%30.13 "Hg10 mi
8:56 am55 °FLow clouds.7 mph96%30.11 "Hg10 mi
7:56 am55 °FLight rain. Low clouds.3 mph96%30.12 "Hg9 mi
6:56 am55 °FMostly cloudy.No wind96%30.11 "Hg10 mi
6:38 am55 °FLight rain. Overcast.3 mph96%30.09 "Hg10 mi
6:28 am54 °FLight rain. Overcast.6 mph100%30.09 "Hg9 mi
5:56 am54 °FLow clouds.3 mph97%30.08 "Hg10 mi
4:56 am53 °FLight rain. Low clouds.10 mph96%30.08 "Hg10 mi
3:56 am53 °FHeavy rain. Fog.12 mph96%30.09 "Hg5 mi
2:56 am53 °FHeavy rain. Fog.8 mph96%30.12 "Hg4 mi
1:56 am53 °FLow clouds.9 mph93%30.11 "Hg9 mi
1:33 am53 °FFog.9 mph93%30.11 "Hg4 mi
12:56 am53 °FFog.8 mph93%30.12 "Hg6 mi
11:56 pm
Tue, Jan 17
53 °FMostly cloudy.7 mph96%30.14 "Hg10 mi
10:56 pm54 °FOvercast.7 mph93%30.14 "Hg10 mi
9:56 pm54 °FOvercast.No wind93%30.14 "Hg10 mi
9:44 pm54 °FOvercast.No wind93%30.14 "Hg10 mi
9:32 pm54 °FLight rain. Overcast.No wind93%30.14 "Hg9 mi
9:03 pm54 °FLight rain. Mostly cloudy.No wind90%30.14 "Hg10 mi
8:56 pm54 °FLight rain. Overcast.No wind90%30.13 "Hg10 mi
7:56 pm53 °FOvercast.6 mph93%30.12 "Hg10 mi
6:56 pm53 °FMostly cloudy.3 mph89%30.14 "Hg10 mi
5:56 pm53 °FMostly cloudy.5 mph89%30.14 "Hg10 mi
4:56 pm54 °FMostly cloudy.No wind90%30.14 "Hg10 mi
3:56 pm54 °FCloudy.8 mph93%30.13 "Hg10 mi
2:56 pm54 °FLight rain. Broken clouds.No wind93%30.13 "Hg10 mi
1:59 pm54 °FRain. Fog.5 mph93%30.16 "Hg6 mi
12:58 pm54 °FThunderstorms. Overcast.6 mph86%30.17 "Hg10 mi
Weather by CustomWeather, © 2017

See weather overviewHow to use our weather pages